TISAT 1 (36799 NORAD) Tracking and Keplerian Element Data

This shows tracking and keplerian element data for the satellite.

Feedback or suggestion? Click here.




ElementValue
Catalog36799
NameTISAT 1
Epoch Orbit79193
Epoch Day34.78807046
Epoch Year2025
RAAN301.4183
Inclination98.0674
Eccentricity0.0004476
Argument of Perigee140.1618
Mean Anonmoly219.994
Mean Motion15.11688163
Decay Rate0.00018189
L11 36799U 10035E 25034.78807046 .00018189 00000+0 10706-2 0 9999
L22 36799 98.0674 301.4183 0004476 140.1618 219.9940 15.11688163791935



Live tracking and technical data element details for TISAT 1 (NORAD 36799). TISAT 1 can be tracked NOW for your location showing map with azimuth and elevation plus other details from your city location.







IsCatalogInMostPopularTable: catalog: 36799, numindb: 390
Update: records affected: 1



GetName: 36799 TISAT 1

Hit Count: updated at: Thu, 22 May 2025 04:10:43 GMT